NY5V Weather Reports


Display with metric or nautical units.
time (UTC)temp
F
wind
direction
speed
MPH
gust
MPH
rain 1hr
in
rain 24hr
in
rain mn
in
humidity
%
barometer
mb
20260507194905 69 65 0.0 0.0 0.00 0.00 0.00 68 1016.5
20260507193903 68 107 1.0 2.0 0.00 0.00 0.00 69 1016.3
20260507192902 68 77 1.0 2.0 0.00 0.00 0.00 68 1016.7
20260507191901 68 54 0.0 0.0 0.00 0.00 0.00 70 1017.1
20260507190900 69 350 3.0 3.0 0.00 0.00 0.00 68 1017.3
20260507185857 68 52 1.0 1.0 0.00 0.00 0.00 69 1017.3
20260507184855 68 52 0.0 1.0 0.00 0.00 0.00 65 1017.4
20260507183856 68 55 0.0 0.0 0.00 0.00 0.00 66 1017.5
20260507182850 67 86 2.0 2.0 0.00 0.00 0.00 69 1017.7
20260507181848 67 74 1.0 1.0 0.00 0.00 0.00 68 1017.7
20260507180847 66 55 1.0 1.0 0.00 0.00 0.00 69 1017.7
20260507175845 66 109 1.0 2.0 0.00 0.00 0.00 68 1017.9
20260507174840 66 84 2.0 3.0 0.00 0.00 0.00 69 1018.0
20260507173840 65 65 1.0 1.0 0.00 0.00 0.00 70 1018.2
20260507172839 64 87 2.0 2.0 0.00 0.00 0.00 72 1017.8
20260507171838 64 78 1.0 1.0 0.00 0.00 0.00 71 1018.2
20260507170838 64 72 1.0 1.0 0.00 0.00 0.00 73 1018.3
20260507165835 63 95 3.0 3.0 0.00 0.00 0.00 71 1018.2
20260507164833 62 98 1.0 2.0 0.00 0.00 0.00 74 1018.5
20260507163833 61 91 2.0 2.0 0.00 0.00 0.00 73 1018.7
20260507162833 61 92 2.0 2.0 0.00 0.00 0.00 74 1018.8
20260507161832 61 86 2.0 3.0 0.00 0.00 0.00 75 1018.7
20260507160831 60 87 2.0 2.0 0.00 0.00 0.00 75 1018.7
20260507155829 60 77 2.0 2.0 0.00 0.00 0.00 75 1018.9
20260507154827 60 76 2.0 3.0 0.00 0.00 0.00 77 1019.1
20260507153827 59 100 2.0 2.0 0.00 0.00 0.00 78 1019.3
20260507153103 60 103 2.0 2.0 0.00 0.00 0.00 78 1019.0
20260507152826 60 103 2.0 2.0 0.00 0.00 0.00 78 1019.0
20260507151955 59 68 1.0 1.0 0.00 0.00 0.00 79 1019.4
20260507151824 59 68 1.0 1.0 0.00 0.00 0.00 79 1019.4
20260507150824 59 92 1.0 2.0 0.00 0.00 0.00 79 1019.3
20260507145822 59 70 1.0 1.0 0.00 0.00 0.00 80 1019.3
20260507144822 58 85 1.0 1.0 0.00 0.00 0.00 81 1019.4
20260507143821 58 84 2.0 2.0 0.00 0.00 0.00 80 1019.6
20260507142821 57 67 2.0 3.0 0.00 0.00 0.00 81 1019.2
20260507141820 57 84 1.0 2.0 0.00 0.00 0.00 84 1019.3
20260507140819 57 105 3.0 3.0 0.00 0.00 0.00 83 1019.4
20260507135814 56 123 2.0 3.0 0.00 0.00 0.00 86 1019.4
20260507134814 56 77 2.0 2.0 0.00 0.00 0.00 86 1019.5
20260507133811 55 67 1.0 2.0 0.00 0.00 0.00 88 1019.4
20260507132812 55 77 2.0 2.0 0.00 0.00 0.00 89 1019.3
20260507131811 54 88 1.0 2.0 0.00 0.00 0.00 90 1019.3
20260507130810 54 90 2.0 2.0 0.00 0.00 0.00 90 1019.5
20260507125806 53 99 2.0 2.0 0.00 0.00 0.00 92 1019.2
20260507124806 53 94 2.0 3.0 0.00 0.00 0.00 93 1019.2
20260507123801 53 75 1.0 2.0 0.00 0.00 0.00 94 1019.4
20260507122800 52 70 1.0 2.0 0.00 0.00 0.00 94 1019.1
20260507121758 52 77 1.0 1.0 0.00 0.00 0.00 93 1019.3
20260507120756 52 67 1.0 1.0 0.00 0.00 0.00 92 1018.8
20260507115755 52 81 2.0 2.0 0.00 0.00 0.00 92 1018.7
20260507114752 52 75 2.0 2.0 0.00 0.00 0.00 92 1018.6
20260507113747 52 64 1.0 1.0 0.00 0.00 0.00 92 1018.3
20260507112747 52 66 1.0 1.0 0.00 0.00 0.00 92 1018.2
20260507111742 52 66 0.0 1.0 0.00 0.00 0.00 92 1018.0
20260507110740 52 65 0.0 0.0 0.00 0.00 0.00 92 1017.7
20260507105740 52 78 2.0 2.0 0.00 0.00 0.00 91 1017.4
20260507104739 52 86 2.0 2.0 0.00 0.00 0.00 90 1017.1
20260507103737 52 68 1.0 1.0 0.00 0.00 0.00 90 1017.0
20260507102736 52 74 1.0 1.0 0.00 0.00 0.00 90 1016.8
20260507101735 52 77 1.0 1.0 0.00 0.00 0.00 90 1016.7
20260507100734 52 83 1.0 2.0 0.00 0.00 0.00 89 1016.5
20260507095730 53 70 1.0 2.0 0.00 0.00 0.00 89 1016.8
20260507094729 53 74 1.0 2.0 0.00 0.00 0.00 89 1016.6
20260507093728 53 62 0.0 1.0 0.00 0.00 0.00 89 1016.4
20260507092725 53 73 1.0 1.0 0.00 0.00 0.00 90 1016.4
20260507091722 53 65 0.0 0.0 0.00 0.00 0.00 90 1016.3
20260507090719 53 67 0.0 1.0 0.00 0.00 0.00 90 1016.1
20260507085719 53 71 1.0 2.0 0.00 0.00 0.00 91 1016.1
20260507084719 53 79 1.0 2.0 0.00 0.00 0.00 90 1015.9
20260507083718 53 60 0.0 0.0 0.00 0.00 0.00 90 1016.2
20260507082717 53 64 0.0 1.0 0.00 0.00 0.00 90 1015.8
20260507081715 53 78 0.0 1.0 0.00 0.00 0.00 90 1015.9
20260507080713 53 58 0.0 1.0 0.00 0.00 0.00 90 1015.5
20260507075711 53 74 2.0 2.0 0.00 0.00 0.00 90 1015.9
20260507074709 53 66 0.0 1.0 0.00 0.00 0.00 91 1016.0
20260507073704 53 72 1.0 1.0 0.00 0.00 0.00 91 1016.1
20260507072704 53 63 0.0 0.0 0.00 0.00 0.00 91 1016.2
20260507071659 53 64 1.0 1.0 0.00 0.00 0.00 91 1016.5
20260507070659 53 60 0.0 0.0 0.00 0.00 0.00 91 1016.5
20260507065657 53 70 1.0 1.0 0.00 0.00 0.00 91 1016.8
20260507064657 53 70 0.0 1.0 0.00 0.00 0.00 91 1016.7
20260507063653 53 57 1.0 2.0 0.00 0.00 0.00 91 1016.9
20260507062652 53 84 2.0 2.0 0.00 0.00 0.00 91 1016.9
20260507061648 54 102 2.0 2.0 0.00 0.00 0.00 91 1016.9
20260507060643 54 107 2.0 2.0 0.00 0.00 0.00 90 1016.9
20260507055641 54 72 2.0 2.0 0.00 0.00 0.00 90 1016.7
20260507054639 54 115 4.0 4.0 0.00 0.00 0.00 90 1017.0
20260507053634 54 104 3.0 3.0 0.00 0.00 0.00 90 1016.9
20260507052630 54 90 1.0 2.0 0.00 0.00 0.00 90 1016.9
20260507051630 54 87 2.0 2.0 0.00 0.00 0.00 90 1016.7
20260507050629 54 139 4.0 6.0 0.00 0.00 0.00 90 1017.1
20260507045629 54 108 2.0 2.0 0.00 0.00 0.00 90 1017.2
20260507044628 54 117 3.0 4.0 0.00 0.00 0.00 91 1017.2
20260507043627 55 117 3.0 3.0 0.00 0.00 0.00 91 1016.8
20260507042626 55 110 2.0 3.0 0.00 0.00 0.00 91 1016.8
20260507041624 55 150 3.0 4.0 0.00 0.00 0.00 90 1017.0
20260507040624 55 59 1.0 1.0 0.00 0.00 0.00 91 1016.9
20260507035622 55 94 2.0 2.0 0.00 0.00 0.00 91 1016.7
20260507034621 55 107 2.0 3.0 0.00 0.00 0.00 93 1016.6
20260507033617 55 117 4.0 4.0 0.00 0.00 0.00 93 1016.7
20260507032617 56 65 2.0 3.0 0.00 0.00 0.00 93 1016.3
20260507031615 56 95 2.0 2.0 0.00 0.00 0.00 93 1015.8
20260507030615 56 104 2.0 2.0 0.00 0.00 0.00 93 1016.1
20260507025609 56 90 2.0 3.0 0.00 0.00 0.00 93 1015.8
20260507024604 57 104 3.0 3.0 0.00 0.00 0.00 93 1015.5
20260507023602 57 115 4.0 4.0 0.00 0.00 0.00 94 1015.4
20260507022557 57 111 3.0 3.0 0.00 0.00 0.00 94 1015.1
20260507021555 57 83 3.0 3.0 0.00 0.00 0.00 96 1015.1
20260507020549 57 95 2.0 2.0 0.00 0.00 0.00 97 1014.9
20260507015549 58 80 1.0 2.0 0.00 0.00 0.00 97 1014.6
20260507014549 58 89 2.0 2.0 0.00 0.00 0.00 98 1014.0
20260507013547 58 79 1.0 2.0 0.00 0.00 0.00 98 1013.6
20260507012542 58 87 2.0 3.0 0.00 0.00 0.00 97 1013.7
20260507011541 59 112 2.0 2.0 0.00 0.00 0.00 97 1014.0
20260507010538 59 102 3.0 3.0 0.00 0.00 0.00 97 1013.2
20260507005532 59 98 3.0 3.0 0.00 0.00 0.00 96 1013.4
20260507004531 59 93 2.0 2.0 0.00 0.00 0.00 98 1013.6
20260507003530 59 77 2.0 2.0 0.00 0.00 0.00 98 1013.3
20260507002528 59 73 4.0 4.0 0.00 0.00 0.00 97 1012.8
20260507001527 60 121 3.0 3.0 0.00 0.00 0.00 97 1013.2
20260507000526 60 101 2.0 2.0 0.00 0.00 0.00 96 1013.4
20260506235525 60 87 1.0 2.0 0.00 0.00 0.00 95 1013.0
20260506234525 60 107 2.0 3.0 0.00 0.00 0.00 94 1013.4
20260506233524 60 118 4.0 4.0 0.00 0.00 0.00 94 1013.4
20260506232523 60 99 2.0 3.0 0.00 0.00 0.00 94 1013.0
20260506231522 60 81 2.0 2.0 0.00 0.00 0.00 94 1013.2
20260506230522 60 89 3.0 3.0 0.00 0.00 0.00 94 1012.6
20260506225516 60 92 2.0 2.0 0.00 0.00 0.00 94 1013.0
20260506224515 60 90 2.0 2.0 0.00 0.00 0.00 94 1012.4
20260506223512 61 79 2.0 3.0 0.00 0.00 0.00 93 1012.4
20260506222511 61 87 2.0 2.0 0.00 0.00 0.00 93 1012.3
20260506221510 61 88 2.0 2.0 0.00 0.00 0.00 93 1012.4
20260506220509 60 74 1.0 1.0 0.00 0.00 0.00 93 1012.4
20260506215507 60 78 1.0 2.0 0.00 0.00 0.00 94 1012.3
20260506214506 60 73 2.0 2.0 0.00 0.00 0.00 94 1012.5
20260506213501 60 85 1.0 2.0 0.00 0.00 0.00 94 1012.4
20260506212459 61 118 3.0 4.0 0.00 0.00 0.00 92 1012.3
20260506211456 61 96 2.0 3.0 0.00 0.00 0.00 91 1012.3
20260506210456 62 102 2.0 3.0 0.00 0.00 0.00 91 1012.1
20260506205455 62 82 1.0 2.0 0.00 0.00 0.00 91 1012.1
20260506204455 62 87 2.0 3.0 0.00 0.00 0.00 90 1012.1
20260506203456 62 86 3.0 3.0 0.00 0.00 0.00 90 1011.8
20260506202456 62 79 1.0 2.0 0.00 0.00 0.00 89 1011.8
20260506201455 62 76 1.0 1.0 0.00 0.00 0.00 90 1012.2
20260506200454 61 94 3.0 3.0 0.00 0.00 0.00 91 1012.5